Location: Melizzano
(41.1500°N, 14.5000°E)
Time: 18:44:53
(UTC+00:00)

Cosmos 1844 - Pass Details

Date: 11 May 2021
Orbit: 824 x 866 km, 70.9° (Epoch: 21 June)

Event Time Altitude Azimuth Distance (km) Brightness Sun altitude
Rises 19:05:47 0° 210° (SSW) 3,420 6.8 -10.0°
Reaches altitude 10° 19:08:15 10° 213° (SSW) 2,482 6.1 -10.4°
Maximum altitude 19:13:56 67° 296° (WNW) 922 4.2 -11.2°
Drops below altitude 10° 19:19:34 10° 19° (NNE) 2,469 6.4 -12.1°
Sets 19:22:02 0° 22° (NNE) 3,401 7.1 -12.4°
